Home   Weather   Bruck an der Leitha   Past weeks
Flag for Austria

Past Weather in Bruck an der Leitha, Lower Austria, Austria — Yesterday and Last 2 Weeks

Now
61 °F

Passing clouds.


Feels Like: 61 °F
Forecast: 80 / 55 °F
Wind: 3 mph from West

Location: Wien / Schwechat-Flughafen

Current Time: Jul 16, 2019 at 3:03:55 am

Latest Report: Jul 16, 2019 at 2:00 am


Visibility: 22 mi

Pressure: 29.96 "Hg

Humidity: 74%

Dew Point: 53 °F

Location of Bruck an der LeithaLocation

Past Weather in Bruck an der Leitha — Graph

°F

Bruck an der Leitha Temperature Yesterday

Maximum temperature yesterday: 76 °F (at 5:00 pm)
Minimum temperature yesterday: 55 °F (at 6:00 am)
Average temperature yesterday: 66 °F

High & Low Weather Summary for the Past Weeks

 TemperatureHumidityPressure
High96 °F (Jul 1, 4:00 pm)93% (Jul 13, 4:00 am)30.19 "Hg (Jul 13, 4:00 am)
Low54 °F (Jul 9, 6:00 am)15% (Jul 6, 5:00 pm)29.70 "Hg (Jul 6, 6:00 pm)
Average70 °F57%29.95 "Hg
* Reported Jul 1 12:00 am — Jul 16 12:00 am, Bruck an der Leitha. Weather by CustomWeather, © 2019

Note: Actual official high and low records may vary slightly from our data, if they occured in-between our weather recording intervals... More about our weather records

Advertising

Bruck an der Leitha Weather History for the Previous 24 Hours

Scroll right to see more
 ConditionsComfort  
Time TempWeatherWind HumidityBarometerVisibility
12:00 am
Tue, Jul 16
64 °FPassing clouds.2 mph67%29.96 "Hg28 mi
11:00 pm
Mon, Jul 15
64 °FPassing clouds.1 mph64%29.96 "Hg25 mi
10:00 pm65 °FPassing clouds.2 mph63%29.95 "Hg22 mi
9:00 pm68 °FPassing clouds.3 mph55%29.93 "Hg31 mi
8:00 pm72 °FPassing clouds.3 mph47%29.91 "Hg28 mi
7:00 pm74 °FPassing clouds.3 mph44%29.91 "Hg28 mi
6:00 pm76 °FPassing clouds.6 mph38%29.91 "Hg37 mi
5:00 pm76 °FPassing clouds.5 mph40%29.92 "Hg34 mi
4:00 pm76 °FPassing clouds.5 mph39%29.92 "Hg31 mi
3:00 pm76 °FPassing clouds.5 mph40%29.93 "Hg31 mi
2:00 pm74 °FPassing clouds.5 mph40%29.94 "Hg22 mi
1:00 pm71 °FScattered clouds.6 mph49%29.96 "Hg25 mi
12:00 pm71 °FPassing clouds.6 mph57%29.96 "Hg28 mi
11:00 am69 °FPassing clouds.5 mph62%29.97 "Hg28 mi
10:00 am67 °FPassing clouds.6 mph62%29.98 "Hg25 mi
9:00 am65 °FPassing clouds.6 mph67%29.97 "Hg25 mi
8:00 am63 °FPassing clouds.5 mph77%29.97 "Hg31 mi
7:00 am59 °FPassing clouds.5 mph86%29.96 "Hg25 mi
6:00 am55 °FPassing clouds.3 mph93%29.96 "Hg16 mi
5:00 am56 °FPassing clouds.3 mph91%29.95 "Hg18 mi
3:00 am58 °FPassing clouds.5 mph87%29.95 "Hg22 mi
Weather by CustomWeather, © 2019

See weather overview

LIVE PARTIAL LUNAR ECLIPSE – Watch the eclipse as it happens